When you browse on this site, cookies collect data to enhance your experience and personalize the content and advertising you see.
Visit our Privacy Policy to learn more. By continuing to use the site, you agree to this use of cookies and data.
  • In Sweden
  • List of Countries
  • For 7 days
  • Water Temperature
  • Weather Map
  • Weather Widgets
  • user-avatar
    Login

    Hourly Weather South Jordan

    Today, 7 June, Sunday

    Time Temperature Precipitation Wind Pressure Humidity
    00:00 +11°C° 0 mm 4 mps 639 mmHg 79%
    01:00 +11°C° 0 mm 4 mps 639 mmHg 78%
    02:00 +11°C° 0 mm 3 mps 639 mmHg 77%
    03:00 +10°C° 0 mm 3 mps 638 mmHg 77%
    04:00 +10°C° 0 mm 2 mps 638 mmHg 78%
    05:00 +10°C° 0 mm 1 mps 638 mmHg 78%
    06:00 +10°C° 0.3 mm 2 mps 639 mmHg 73%
    07:00 +11°C° 0.3 mm 3 mps 639 mmHg 67%
    08:00 +11°C° 0.3 mm 3 mps 639 mmHg 62%
    09:00 +11°C° 0.2 mm 3 mps 639 mmHg 58%
    10:00 +11°C° 0.2 mm 3 mps 639 mmHg 55%
    11:00 +11°C° 0.2 mm 3 mps 639 mmHg 52%
    12:00 +12°C° 0.1 mm 3 mps 639 mmHg 46%
    13:00 +14°C° 0.1 mm 3 mps 640 mmHg 41%
    14:00 +16°C° 0.1 mm 2 mps 640 mmHg 35%
    15:00 +14°C° 0 mm 4 mps 640 mmHg 36%
    16:00 +14°C° 0 mm 5 mps 640 mmHg 37%
    17:00 +13°C° 0 mm 6 mps 641 mmHg 37%
    18:00 +10°C° 0.2 mm 5 mps 641 mmHg 46%
    19:00 +10°C° 0.2 mm 4 mps 641 mmHg 54%
    20:00 +8°C° 0.2 mm 3 mps 641 mmHg 62%
    21:00 +8°C° 0.1 mm 2 mps 642 mmHg 62%
    22:00 +8°C° 0.1 mm 2 mps 642 mmHg 61%
    23:00 +9°C° 0.1 mm 1 mps 643 mmHg 61%

    Tomorrow, 8 June, Monday

    Time Temperature Precipitation Wind Pressure Humidity
    00:00 +8°C° 0 mm 1 mps 643 mmHg 60%
    01:00 +8°C° 0 mm 1 mps 643 mmHg 60%
    02:00 +8°C° 0 mm 1 mps 643 mmHg 60%
    03:00 +7°C° 0 mm 1 mps 643 mmHg 59%
    04:00 +7°C° 0 mm 1 mps 643 mmHg 58%
    05:00 +7°C° 0 mm 1 mps 644 mmHg 57%
    06:00 +7°C° 0.1 mm 2 mps 644 mmHg 56%
    07:00 +8°C° 0.1 mm 3 mps 645 mmHg 54%
    08:00 +8°C° 0.1 mm 4 mps 645 mmHg 52%
    09:00 +8°C° 0.6 mm 4 mps 645 mmHg 57%
    10:00 +8°C° 0.6 mm 4 mps 645 mmHg 61%
    11:00 +8°C° 0.6 mm 4 mps 645 mmHg 65%
    12:00 +10°C° 0.6 mm 4 mps 645 mmHg 62%
    13:00 +11°C° 0.6 mm 4 mps 646 mmHg 59%
    14:00 +10°C° 0.6 mm 5 mps 646 mmHg 56%
    15:00 +12°C° 0 mm 5 mps 646 mmHg 51%
    16:00 +12°C° 0 mm 5 mps 646 mmHg 46%
    17:00 +13°C° 0 mm 5 mps 646 mmHg 41%
    18:00 +12°C° 0 mm 4 mps 646 mmHg 46%
    19:00 +10°C° 0 mm 3 mps 646 mmHg 50%
    20:00 +9°C° 0 mm 2 mps 646 mmHg 54%
    21:00 +9°C° 0 mm 2 mps 647 mmHg 54%
    22:00 +8°C° 0 mm 2 mps 647 mmHg 54%
    23:00 +8°C° 0 mm 2 mps 647 mmHg 54%

    Day after tomorrow, 9 June, Tuesday

    Time Temperature Precipitation Wind Pressure Humidity
    00:00 +8°C° 0 mm 1 mps 647 mmHg 56%
    01:00 +8°C° 0 mm 1 mps 647 mmHg 57%
    02:00 +7°C° 0 mm 1 mps 647 mmHg 59%
    03:00 +7°C° 0 mm 1 mps 647 mmHg 58%
    04:00 +7°C° 0 mm 1 mps 647 mmHg 58%
    05:00 +7°C° 0 mm 1 mps 647 mmHg 58%
    06:00 +9°C° 0 mm 1 mps 647 mmHg 52%
    07:00 +10°C° 0 mm 2 mps 648 mmHg 45%
    08:00 +13°C° 0 mm 2 mps 648 mmHg 39%
    09:00 +15°C° 0 mm 2 mps 648 mmHg 36%
    10:00 +16°C° 0 mm 2 mps 649 mmHg 33%
    11:00 +17°C° 0 mm 2 mps 649 mmHg 30%
    12:00 +18°C° 0 mm 3 mps 649 mmHg 29%
    13:00 +19°C° 0 mm 3 mps 649 mmHg 29%
    14:00 +20°C° 0 mm 4 mps 649 mmHg 28%
    15:00 +20°C° 0 mm 4 mps 649 mmHg 29%
    16:00 +20°C° 0 mm 4 mps 649 mmHg 30%
    17:00 +20°C° 0 mm 4 mps 648 mmHg 31%
    18:00 +18°C° 0 mm 3 mps 648 mmHg 38%
    19:00 +16°C° 0 mm 2 mps 648 mmHg 46%
    20:00 +14°C° 0 mm 1 mps 647 mmHg 53%
    21:00 +14°C° 0 mm 1 mps 648 mmHg 55%
    22:00 +13°C° 0 mm 1 mps 648 mmHg 57%
    23:00 +13°C° 0 mm 1 mps 648 mmHg 58%

    10 June, Wednesday

    Time Temperature Precipitation Wind Pressure Humidity
    00:00 +13°C° 0 mm 1 mps 648 mmHg 61%
    01:00 +12°C° 0 mm 1 mps 648 mmHg 64%
    02:00 +11°C° 0 mm 0 mps 648 mmHg 67%
    03:00 +12°C° 0 mm 1 mps 648 mmHg 67%
    04:00 +11°C° 0 mm 1 mps 648 mmHg 67%
    05:00 +11°C° 0 mm 1 mps 648 mmHg 67%
    06:00 +13°C° 0 mm 1 mps 649 mmHg 60%
    07:00 +16°C° 0 mm 1 mps 649 mmHg 53%
    08:00 +19°C° 0 mm 1 mps 650 mmHg 46%
    09:00 +20°C° 0 mm 1 mps 650 mmHg 43%
    10:00 +22°C° 0 mm 1 mps 651 mmHg 39%
    11:00 +23°C° 0 mm 1 mps 651 mmHg 35%
    12:00 +24°C° 0 mm 2 mps 650 mmHg 33%
    13:00 +24°C° 0 mm 2 mps 650 mmHg 32%
    14:00 +25°C° 0 mm 2 mps 650 mmHg 30%
    15:00 +25°C° 0 mm 2 mps 650 mmHg 30%
    16:00 +25°C° 0 mm 2 mps 650 mmHg 31%
    17:00 +25°C° 0 mm 2 mps 649 mmHg 31%
    18:00 +23°C° 0 mm 2 mps 649 mmHg 36%
    19:00 +20°C° 0 mm 2 mps 648 mmHg 42%
    20:00 +19°C° 0 mm 1 mps 648 mmHg 47%
    21:00 +18°C° 0 mm 1 mps 648 mmHg 47%
    22:00 +16°C° 0 mm 2 mps 648 mmHg 47%
    23:00 +16°C° 0 mm 2 mps 648 mmHg 47%

    11 June, Thursday

    Time Temperature Precipitation Wind Pressure Humidity
    00:00 +16°C° 0 mm 2 mps 648 mmHg 46%
    01:00 +15°C° 0 mm 2 mps 648 mmHg 45%
    02:00 +15°C° 0 mm 2 mps 648 mmHg 45%
    03:00 +15°C° 0 mm 2 mps 648 mmHg 44%
    04:00 +15°C° 0 mm 2 mps 648 mmHg 44%
    05:00 +15°C° 0 mm 2 mps 648 mmHg 43%
    06:00 +17°C° 0 mm 2 mps 649 mmHg 40%
    07:00 +20°C° 0 mm 2 mps 650 mmHg 38%
    08:00 +23°C° 0 mm 2 mps 650 mmHg 35%
    09:00 +25°C° 0 mm 2 mps 651 mmHg 32%
    10:00 +26°C° 0 mm 2 mps 651 mmHg 28%
    11:00 +28°C° 0 mm 3 mps 651 mmHg 24%
    12:00 +29°C° 0 mm 2 mps 651 mmHg 22%
    13:00 +30°C° 0 mm 2 mps 651 mmHg 20%
    14:00 +31°C° 0 mm 2 mps 651 mmHg 18%
    15:00 +31°C° 0 mm 2 mps 650 mmHg 18%
    16:00 +31°C° 0 mm 2 mps 650 mmHg 18%
    17:00 +31°C° 0 mm 1 mps 650 mmHg 19%
    18:00 +28°C° 0 mm 1 mps 649 mmHg 24%
    19:00 +25°C° 0 mm 1 mps 648 mmHg 29%
    20:00 +23°C° 0 mm 1 mps 647 mmHg 34%
    21:00 +21°C° 0 mm 2 mps 648 mmHg 34%
    22:00 +21°C° 0 mm 2 mps 648 mmHg 34%
    23:00 +20°C° 0 mm 2 mps 648 mmHg 35%

    12 June, Friday

    Time Temperature Precipitation Wind Pressure Humidity
    00:00 +20°C° 0 mm 2 mps 648 mmHg 34%
    01:00 +20°C° 0 mm 3 mps 648 mmHg 33%
    02:00 +19°C° 0 mm 3 mps 647 mmHg 32%
    03:00 +19°C° 0 mm 3 mps 647 mmHg 32%
    04:00 +19°C° 0 mm 3 mps 647 mmHg 32%
    05:00 +19°C° 0 mm 3 mps 647 mmHg 31%
    06:00 +21°C° 0 mm 3 mps 648 mmHg 31%
    07:00 +24°C° 0 mm 3 mps 649 mmHg 30%
    08:00 +26°C° 0 mm 3 mps 649 mmHg 29%
    09:00 +28°C° 0 mm 3 mps 649 mmHg 26%
    10:00 +30°C° 0 mm 3 mps 649 mmHg 22%
    11:00 +33°C° 0 mm 3 mps 649 mmHg 18%
    12:00 +33°C° 0 mm 3 mps 649 mmHg 17%
    13:00 +34°C° 0 mm 4 mps 648 mmHg 16%
    14:00 +35°C° 0 mm 4 mps 648 mmHg 15%
    15:00 +35°C° 0 mm 4 mps 648 mmHg 16%
    16:00 +35°C° 0 mm 4 mps 647 mmHg 16%
    17:00 +35°C° 0 mm 3 mps 646 mmHg 17%
    18:00 +31°C° 0 mm 3 mps 645 mmHg 21%
    19:00 +28°C° 0 mm 2 mps 644 mmHg 24%
    20:00 +25°C° 0 mm 2 mps 644 mmHg 27%
    21:00 +25°C° 0 mm 2 mps 643 mmHg 25%
    22:00 +24°C° 0 mm 2 mps 643 mmHg 23%
    23:00 +24°C° 0 mm 3 mps 643 mmHg 21%
    Show more